Sioux City, IA

4:14 AM CST on February 25, 2018 (GMT -0600)
Sioux Gateway

Weather History for KSUX - September, 2013

Change the Weather History Date:

Monday, September 9, 2013

  Actual Average Record
Temperature  
Mean Temperature 81 °F 66 °F  
Max Temperature 94 °F 79 °F 99 °F (1931)
Min Temperature 68 °F 54 °F 37 °F (1995)
Degree Days  
Heating Degree Days 0 3  
Month to date heating degree days 0 16  
Since 1 July heating degree days 20 31  
Cooling Degree Days 16 4  
Month to date cooling degree days 82 40  
Year to date cooling degree days 883 817  
Growing Degree Days 32 (Base 50)    
Moisture  
Dew Point 67 °F    
Average Humidity 66    
Maximum Humidity 96    
Minimum Humidity 36    
Precipitation  
Precipitation 0.00 in 0.10 in 4.65 in (1914)
Month to date precipitation 1.10 0.93  
Year to date precipitation 21.23 21.47  
Snow  
Snow 0.00 in 0.00 in 0.00 in ()
Month to date snowfall 0.0 0.0  
Since 1 July snowfall 0.0 0.0  
Since 1 September snowfall 0.0 0.0  
Snow Depth 0.00 in    
Sea Level Pressure  
Sea Level Pressure 29.74 in    
Wind  
Wind Speed 9 mph (South)    
Max Wind Speed 21 mph    
Max Gust Speed 26 mph    
Visibility 9 miles    
Events      
T = Trace of Precipitation, MM = Missing Value Source: NWS Daily Summary

Daily Weather History Graph

Daily Weather History Graph

Search for Another Location

Airport or City:

Trip Planner

Search our weather history database for the weather conditions in past years. The results will help you decide how hot, cold, wet, or windy it might be!

Date:

Astronomy

Sep. 09, 2013 Rise Set
Actual Time 6:59 AM CDT 7:45 PM CDT
Civil Twilight 6:30 AM CDT 8:13 PM CDT
Nautical Twilight 5:57 AM CDT 8:47 PM CDT
Astronomical Twilight 5:22 AM CDT 9:22 PM CDT
Moon 11:28 AM CDT (9/9) 9:56 PM CDT (9/9)
Length of Visible Light 13h 42m
Length of Day
12h 45m
Waxing Crescent, 19% of the Moon is Illuminated
Sep 9
Waxing Crescent
Sep 12
First Quarter
Sep 19
Full
Sep 26
Last Quarter
Oct 4
New

Hourly Weather History & Observations

Time (CDT) Temp. Heat Index Dew Point Humidity Pressure Visibility Wind Dir Wind Speed Gust Speed Precip Events Conditions
12:52 AM 73.0 °F - 71.1 °F 93% 29.76 in 5.0 mi ESE 5.8 mph - N/A   Clear
1:52 AM 73.0 °F - 71.1 °F 93% 29.74 in 4.0 mi ESE 8.1 mph - N/A   Clear
2:52 AM 71.1 °F - 70.0 °F 96% 29.73 in 4.0 mi ESE 6.9 mph - N/A   Clear
3:52 AM 71.1 °F - 70.0 °F 96% 29.73 in 5.0 mi ESE 6.9 mph - N/A   Clear
4:52 AM 71.1 °F - 69.1 °F 93% 29.72 in 7.0 mi ESE 8.1 mph - N/A   Clear
5:52 AM 70.0 °F - 68.0 °F 93% 29.73 in 9.0 mi SE 6.9 mph - N/A   Clear
6:52 AM 70.0 °F - 66.9 °F 90% 29.73 in 9.0 mi SE 10.4 mph - N/A   Clear
7:52 AM 71.1 °F - 66.0 °F 84% 29.74 in 10.0 mi SE 9.2 mph - N/A   Clear
8:52 AM 75.0 °F - 66.9 °F 76% 29.75 in 10.0 mi SE 9.2 mph - N/A   Clear
9:52 AM 80.1 °F 82.1 °F 66.0 °F 62% 29.74 in 10.0 mi Variable 5.8 mph - N/A   Clear
10:52 AM 84.0 °F 86.3 °F 66.0 °F 55% 29.74 in 10.0 mi SSW 9.2 mph - N/A   Clear
11:52 AM 87.1 °F 89.2 °F 66.0 °F 49% 29.73 in 10.0 mi SW 10.4 mph - N/A   Clear
12:52 PM 90.0 °F 92.8 °F 66.9 °F 46% 29.73 in 10.0 mi SSW 12.7 mph - N/A   Clear
1:52 PM 91.9 °F 95.9 °F 68.0 °F 45% 29.72 in 10.0 mi SSW 13.8 mph 20.7 mph N/A   Clear
2:52 PM 93.0 °F 97.4 °F 68.0 °F 44% 29.71 in 10.0 mi South 16.1 mph - N/A   Clear
3:52 PM 93.9 °F 97.0 °F 66.0 °F 40% 29.70 in 10.0 mi SSW 16.1 mph 25.3 mph N/A   Clear
4:52 PM 93.9 °F 98.6 °F 68.0 °F 43% 29.70 in 10.0 mi SSW 13.8 mph 26.5 mph N/A   Clear
5:52 PM 91.9 °F 94.5 °F 66.0 °F 42% 29.71 in 10.0 mi SSW 12.7 mph - N/A   Clear
6:52 PM 88.0 °F 89.6 °F 64.9 °F 46% 29.71 in 10.0 mi SSW 11.5 mph - N/A   Clear
7:52 PM 82.9 °F 84.0 °F 63.0 °F 51% 29.73 in 10.0 mi SSW 9.2 mph - N/A   Clear
8:52 PM 80.1 °F 81.7 °F 64.0 °F 58% 29.76 in 10.0 mi NW 4.6 mph - N/A   Clear
9:52 PM 78.1 °F - 64.0 °F 62% 29.78 in 10.0 mi Calm Calm - N/A   Clear
10:52 PM 77.0 °F - 62.1 °F 60% 29.80 in 10.0 mi SW 6.9 mph - N/A   Clear
11:52 PM 68.0 °F - 64.0 °F 87% 29.82 in 10.0 mi SSW 6.9 mph - N/A   Clear